Content
SEND FEEDBACK

Daily
Averages
Monthly
Summary
France

LE HAVRE, FRANCE


Home > Europe > France
Elevation: 338 feet     Latitude: 49 31N     Longitude: 000 04E

WEATHER
 
SELECT A DAY
Number of Records: 175,894;   Date Range: 3/4/97 - 7/20/14
 
SHARE

PRINT THIS DATA

[ ← Previous Day ]
WEATHER ALMANAC - JANUARY 19, 2013
[ Next Day → ]
[ °C ]   °F
Weather ElementAverageHighLow
Temperature29 °F30.2 °F (11:30 am)28.4 °F (12:30 am)
Dewpoint25.8 °F26.6 °F (12:30 am)24.8 °F (12:30 pm)
Humidity87.7 %93 % (12:30 am)80 % (12:30 pm)
Barometer29.32 in29.36 in (8:00 pm)29.27 in (7:00 am)
Wind Speed11.4 mph16.1 mph (12:30 pm)
Weather ElementAverage
Visibility4 mi
Wind DirectionENE (74.7 °)

Weather ElementTotal
Precipitation---
Heating Degree Days35.7 (Base 65)
Averaged from 47 records on January 19, 2013
WEATHER CONDITIONS BREAKOUT
WIND DIRECTION BREAKOUT
WEATHER BY HOUR - JANUARY 19, 2013
[ °C ]   °F
Local TimeTemperatureDewpointHumidityBarometerVisibilityWind DirectionWind SpeedGust SpeedPrecipitationEventsConditions
12:30 AM28.4 °F26.6 °F93 %29.33 inESE (110°)10.4 mphSnowLight Snow
1:00 AM28.4 °F26.6 °F93 %29.33 inEast (90°)9.2 mphSnowLight Snow
1:30 AM28.4 °F26.6 °F93 %29.33 in3.1 miEast (100°)10.4 mphOvercast
2:00 AM28.4 °F26.6 °F93 %29.33 in3.7 miEast (100°)9.2 mphOvercast
2:30 AM28.4 °F26.6 °F93 %29.33 in3.7 miEast (100°)8.1 mphOvercast
3:00 AM28.4 °F26.6 °F93 %29.33 inEast (100°)8.1 mphOvercast
3:30 AM28.4 °F26.6 °F93 %29.33 inEast (100°)6.9 mphOvercast
4:00 AM28.4 °F26.6 °F93 %29.33 in1.6 miEast (90°)10.4 mphOvercast
4:30 AM28.4 °F26.6 °F93 %29.30 inEast (100°)9.2 mphOvercast
5:00 AM28.4 °F26.6 °F93 %29.30 in2.8 miEast (100°)8.1 mphOvercast
5:30 AM28.4 °F26.6 °F93 %29.30 in1.9 miEast (100°)8.1 mphSnowLight Snow
6:00 AM28.4 °F26.6 °F93 %29.30 inEast (100°)8.1 mphOvercast
6:30 AM28.4 °F26.6 °F93 %29.30 inEast (90°)9.2 mphSnowLight Snow
7:00 AM28.4 °F26.6 °F93 %29.27 inEast (90°)9.2 mphSnowLight Snow
7:30 AM28.4 °F26.6 °F93 %29.27 inEast (90°)9.2 mphSnowLight Snow
8:00 AM28.4 °F26.6 °F93 %29.30 inEast (90°)9.2 mphOvercast
8:30 AM28.4 °F26.6 °F93 %29.30 in3.1 miEast (90°)8.1 mphOvercast
9:00 AM28.4 °F26.6 °F93 %29.30 in3.1 miEast (80°)9.2 mphOvercast
9:30 AM28.4 °F26.6 °F93 %29.30 inEast (80°)10.4 mphOvercast
10:00 AM28.4 °F26.6 °F93 %29.33 in3.1 miEast (80°)10.4 mphOvercast
10:30 AM28.4 °F26.6 °F93 %29.33 in3.1 miEast (80°)12.7 mphOvercast
11:00 AM28.4 °F26.6 °F93 %29.33 in3.7 miENE (70°)11.5 mphOvercast
11:30 AM30.2 °F26.6 °F86 %29.33 in3.1 miENE (70°)12.7 mphOvercast
12:00 PM30.2 °F26.6 °F86 %29.30 in3.1 miEast (80°)13.8 mphOvercast
12:30 PM30.2 °F24.8 °F80 %29.30 in4.3 miEast (80°)16.1 mphOvercast
1:00 PM30.2 °F24.8 °F80 %29.30 in4.3 miEast (90°)13.8 mphOvercast
1:30 PM30.2 °F24.8 °F80 %29.30 in3.7 miEast (80°)13.8 mphOvercast
2:00 PM30.2 °F24.8 °F80 %29.30 in5.6 miENE (70°)13.8 mphOvercast
2:30 PM30.2 °F24.8 °F80 %29.30 in5.0 miENE (70°)15.0 mphOvercast
3:00 PM28.4 °F24.8 °F86 %29.30 in5.0 miENE (60°)13.8 mphMostly Cloudy
3:30 PM28.4 °F24.8 °F86 %29.30 in5.0 miENE (60°)13.8 mphMostly Cloudy
4:00 PM30.2 °F24.8 °F80 %29.30 in6.2 miENE (60°)12.7 mphMostly Cloudy
4:30 PM30.2 °F24.8 °F80 %29.33 in5.6 miENE (60°)12.7 mphOvercast
5:00 PM30.2 °F24.8 °F80 %29.33 in5.0 miNE (50°)12.7 mphOvercast
5:30 PM30.2 °F24.8 °F80 %29.33 in6.2 miNE (50°)13.8 mphOvercast
6:00 PM30.2 °F24.8 °F80 %29.33 in6.2 miNE (50°)15.0 mphOvercast
6:30 PM30.2 °F24.8 °F80 %29.33 in6.2 miNE (50°)13.8 mphOvercast
7:00 PM30.2 °F26.6 °F86 %29.33 in4.3 miENE (60°)12.7 mphOvercast
7:30 PM30.2 °F24.8 °F80 %29.33 in4.3 miENE (60°)13.8 mphOvercast
8:00 PM28.4 °F24.8 °F86 %29.36 in4.3 miENE (60°)11.5 mphOvercast
8:30 PM28.4 °F24.8 °F86 %29.36 in3.7 miENE (60°)12.7 mphOvercast
9:00 PM28.4 °F24.8 °F86 %29.36 in3.7 miNE (50°)11.5 mphOvercast
9:30 PM28.4 °F24.8 °F86 %29.36 in3.7 miNE (40°)12.7 mphMostly Cloudy
10:00 PM28.4 °F24.8 °F86 %29.36 in3.7 miNE (40°)12.7 mphOvercast
10:30 PM28.4 °F24.8 °F86 %29.36 in3.1 miNE (40°)12.7 mphOvercast
11:00 PM28.4 °F24.8 °F86 %29.36 in3.1 miNE (40°)12.7 mphOvercast
11:30 PM28.4 °F24.8 °F86 %29.36 in3.7 miNE (50°)11.5 mphOvercast
Hourly data recorded from LFOH, located miles away from Le Havre, France







STORIES FROM OUR PARTNERS